Preview of NWS' New Version of Forecast
This preview is not operational and should not be used for support decisions.

Regional Weather Roundup (RWR)

Issued by Philadelphia/Mt Holly (PHI)

                            
000
ASUS41 KPHI 170912
RWRPHI

REGIONAL WEATHER ROUNDUP
NATIONAL WEATHER SERVICE MOUNT HOLLY NJ
400 AM EST THU JAN 17 2019

NOTE:  "FAIR" INDICATES FEW OR NO CLOUDS BELOW 12,000 FEET WITH NO
SIGNIFICANT WEATHER AND/OR OBSTRUCTIONS TO VISIBILITY.

 * = STATION DOES NOT REPORT PRECIPITATION (E.G. RAIN, SNOW, ETC.) 
        OR FOG.

NJZ015>026-171000-
SOUTHERN NEW JERSEY
  
CITY           SKY/WX    TMP DP  RH WIND       PRES   REMARKS
POMONA         FAIR      25  21  85 N3        30.31R                  
WILDWOOD*      CLOUDY    37  27  67 N3        30.32R                  
MILLVILLE      FAIR      31  20  63 N6        30.31R WCI  25          
WRIGHTSTOWN    FAIR      29  17  60 NE10      30.28S WCI  20          
MOUNT HOLLY    FAIR      29  16  58 N6        30.31F WCI  23          
TRENTON        FAIR      29  15  56 N7        30.31R WCI  22          

$$
NJZ001>014-171000-
NORTHERN NEW JERSEY
  
CITY           SKY/WX    TMP DP  RH WIND       PRES   REMARKS
SUSSEX         FAIR      21   9  59 N5        30.30F WCI  15          
ANDOVER*         N/A     21   7  54 VRB5      30.31S WCI  15          
MORRISTOWN     FAIR      25   7  46 NW8       30.31S WCI  16          
NEWARK         MOCLDY    26   3  37 NW12      30.32R WCI  16          
TETERBORO      FAIR      26   7  44 N13G21    30.32R WCI  15          
CALDWELL       FAIR      24   5  44 NW6       30.32R WCI  17          
SOMERVILLE     FAIR      26  10  50 N9        30.32R WCI  17          
ALLAIRE*       FAIR      28  17  63 N8        30.32R WCI  20          
TOMS RIVER*    FAIR      28  21  75 N3        30.32R                  

$$
PAZ043-044-047-054-055-060>062-066>071-171000-
EASTERN PENNSYLVANIA
  
CITY           SKY/WX    TMP DP  RH WIND       PRES   REMARKS
PHILADELPHIA   CLOUDY    30  16  56 N8        30.33R WCI  22          
NORTH PHILA    FAIR      32  16  51 N10       30.33S WCI  24          
BLUE BELL*     FAIR      30  16  55 CALM      30.32S                  
DOYLESTOWN     FAIR      27  13  55 N6        30.30S WCI  20          
QUAKERTOWN*    CLEAR     27  14  59 VRB7      30.30S WCI  19          
PERKASIE*      FAIR      27  14  59 N6        30.30S WCI  20          
POTTSTOWN      FAIR      27  14  58 NE7       30.32S WCI  19          
LANCASTER      FAIR      31  18  58 NE8       30.30S WCI  23          
COATESVILLE    FAIR      28  18  64 N6        30.30R WCI  22          
READING        FAIR      28  17  63 N5        30.30  WCI  23          
ALLENTOWN      FAIR      25  11  55 N10       30.32R WCI  15          
MOUNT POCONO   FAIR      14   6  70 NW8       30.20S WCI   3          
HAZLETON       FAIR      19   9  63 N6        30.26S WCI  11          
LEHIGHTON      FAIR      25  12  58 N6        30.33R WCI  18          
WILKES BARRE   FAIR      17   8  67 N7        30.29F WCI   8          

$$
DEZALL-MDZ008-012-015-019-020-171000-
DELAWARE AND EASTERN MARYLAND
  
CITY           SKY/WX    TMP DP  RH WIND       PRES   REMARKS
WILMINGTON     FAIR      30  20  66 N3        30.32S                  
DOVER          CLOUDY    36  24  62 CALM      30.31R                  
GEORGETOWN     CLOUDY    33  26  75 CALM      30.32S                  
EASTON         CLOUDY    37  26  66 CALM      30.34F                  
PATUXENT       FAIR      32  27  81 NW3       30.31                   
OCEAN CITY     FAIR      28  25  88 CALM      30.32R                  
WALLOPS ISLAND FAIR      27  23  85 CALM      30.32F                  
CAMBRIDGE      PTCLDY    28  27  93 CALM      30.31F                  
SALISBURY      FAIR      28  27  96 CALM      30.31S                  

$$
PAZ001-021-NYZ056-072-MDZ011-DCZ001-171000-
OTHER NEARBY LOCATIONS
  
CITY           SKY/WX    TMP DP  RH WIND       PRES   REMARKS
HARRISBURG     CLOUDY    30  16  56 N6        30.31R WCI  24          
STATE COLLEGE  FAIR      20  15  79 CALM      30.28S                  
WILLIAMSPORT   FAIR      21  11  65 NW6       30.33S WCI  13          
BINGHAMTON     FAIR       9   6  88 W3        30.23F                  
NEW YORK CITY  FAIR      27   5  39 MISG      30.33R                  
BALTIMORE      CLOUDY    35  25  66 W5        30.31S WCI  31          
WASHINGTON DC  CLOUDY    39  23  52 NW7       30.34S WCI  34          

$$